254  
ASUS45 KBOU 212007  
RWRCO  
 
WEATHER ROUNDUP FOR COLORADO  
NATIONAL WEATHER SERVICE DENVER/BOULDER CO  
200 PM MDT FRI JUL 21 2017  
 
NOTE: "FAIR" INDICATES FEW OR NO CLOUDS BELOW 12000 FEET WITH NO  
SIGNIFICANT WEATHER AND/OR S TO VISIBILITY
.  
 
COZ001>005-013-030-031-212100-   
..NORTHWEST COLORADO
 
 
 
CITY SKY/WX TMP DP RH WIND PRES REMARKS
 
CRAIG FAIR 86 43 22 SW3 30.18F  
HAYDEN FAIR 82 43 24 SW3 30.22F  
MEEKER FAIR 81 54 39 S6 30.21F  
RABBIT EARS PA MOCLDY 63 45 51 W5 30.55F  
STEAMBOAT SPGS FAIR 81 47 30 NW8 30.23F  
WALDEN FAIR 79 43 27 NE5 30.35F  

 
 
COZ006>008-011-212100-   
..WEST CENTRAL VALLEYS
 
 
 
CITY SKY/WX TMP DP RH WIND PRES REMARKS
 
GRAND JUNCTION FAIR 90 50 25 W6 30.08F  
MONTROSE FAIR 86 49 27 VRB3 30.17F  
EAGLE PTSUNNY 84 46 26 W8 30.22F  
RIFLE PTSUNNY 79 56 45 NW5 30.16F  
DELTA FAIR 95 44 17 W6G18 30.11F  
NUCLA FAIR 84 45 24 N3 30.23F  

 
 
COZ017>023-064>068-212100-   
..SOUTHWEST COLORADO
 
 
 
CITY SKY/WX TMP DP RH WIND PRES REMARKS
 
DURANGO PTSUNNY 79 52 38 VRB6 30.23F  
CORTEZ FAIR 82 54 37 W9 30.18F  
PAGOSA SPRINGS FAIR 81 41 24 S9 30.30F  
TELLURIDE LGT RAIN 60 51 72 CALM 30.49S  
WOLF CREEK PAS CLOUDY 45 37 76 NE7 30.71S THUNDER  

 
 
COZ009-010-012-014-032>034-037-058>063-212100-   
..CENTRAL COLORADO
 
 
 
CITY SKY/WX TMP DP RH WIND PRES REMARKS
 
ASPEN PTSUNNY 75 49 39 SW8 30.31F THUNDER  
BUENA VISTA FAIR 78 40 25 S6 30.28F  
COPPER MTN CLOUDY 64 43 45 CALM 30.66F THUNDER  
BERTHOUD PASS FAIR 54 39 58 S3 30.71F  
COTTONWOOD PAS PTSUNNY 73 32 21 SE13G18 30.46F  
GUNNISON FAIR 79 43 27 W7 30.28F  
KREMMLING FAIR 86 46 25 NW9 30.29F  
LEADVILLE FAIR 64 42 44 W7 30.43F  
MONARCH PASS PTSUNNY 63 37 39 S3 30.76F  
SALIDA FAIR 88 38 17 S6 30.32F  
SUNLIGHT TSTM 52 45 76 CALM 30.59F  
WILKERSON PASS FAIR 72 34 25 S5 30.62F  

 
 
COZ069>075-212100-   
..SAN LUIS VALLEY/SANGRE DE CRISTO MOUNTAINS
 
 
 
CITY SKY/WX TMP DP RH WIND PRES REMARKS
 
ALAMOSA FAIR 81 42 25 SE7 30.28F  
DEL NORTE FAIR 80 41 25 S6 30.33F  
LA VETA PASS NOT AVBL  
SAGUACHE N/A N/A N/A N/A MISG N/A  

 
 
COZ035-036-038>040-212100-   
..NORTHERN COLORADO FRONT RANGE
 
 
 
CITY SKY/WX TMP DP RH WIND PRES REMARKS
 
DENVER INTL AP FAIR 94 45 18 NE10 30.08F  
DMNS CITY PARK N/A 90 46 22 NW2 30.08S  
AURORA MOSUNNY 91 47 21 NE5 30.11F  
FRONT RANGE AP FAIR 93 43 17 E7G18 30.10F  
ERIE MUNI ARPT FAIR 92 40 16 E6 30.08S  
BOULDER MUN AP FAIR 90 45 20 NE7 30.08F  
CENTENNIAL FAIR 91 41 17 NE8 30.13F  
BROOMFIELD FAIR 88 43 20 NE10 30.12F  
FORT COLLINS FAIR 95 49 20 VRB7G17 30.07F  
LONGMONT FAIR 97 44 16 N6 30.08F  

 
 
COZ041-046-047-076>085-087-088-212100-   
..PIKES PEAK/PALMER DIVIDE AND SOUTHERN FOOTHILLS
 
 
 
CITY SKY/WX TMP DP RH WIND PRES REMARKS
 
COLO. SPRINGS FAIR 90 51 26 SE6 30.16F  
A. F. ACADEMY PTSUNNY 85 49 29 S9 30.18F  
SCHRIEVER AFB FAIR 86 47 25 SE6 30.17F  
CHEYENNE MTN FAIR 84 47 27 SE13 30.18F  
ELLICOTT FAIR 1 32 100 SW10G16 30.15F WCI -15  
FALCON N/A 87 41 20 CALM 30.24F  
FORT CARSON FAIR 89 49 25 E7 30.13F  
LIMON FAIR 89 50 26 CALM 30.10F  
MONUMENT HILL FAIR 82 46 28 SE7 30.25F  
CANON CITY SUNNY 93 52 24 E7 30.08F  
WALSENBURG FAIR 95 41 15 NE8G18 30.14F  
TRINIDAD FAIR 91 44 19 NE7 30.12F  

 
 
COZ042>045-048>051-090-091-212100-   
..NORTHEAST COLORADO
 
 
 
CITY SKY/WX TMP DP RH WIND PRES REMARKS
 
GREELEY ARPT FAIR 93 52 24 VRB3 30.04F  
AKRON FAIR 95 46 18 VRB3 30.04  
BURLINGTON FAIR 97 53 22 S8 29.99F  
WRAY NOT AVBL  
YUMA FAIR 95 52 23 NE7 29.99F  
STERLING FAIR 99 54 22 NE13 29.97F  
HOLYOKE FAIR 102 48 16 W5 29.96F  
FORT MORGAN FAIR 98 41 13 N3 30.03F  

 
 
COZ086-089-092>099-212100-   
..SOUTHEAST COLORADO
 
 
 
CITY SKY/WX TMP DP RH WIND PRES REMARKS
 
PUEBLO FAIR 96 46 18 E3 30.02F  
LA JUNTA FAIR 96 55 25 VRB6 30.00F  
LAMAR FAIR 98 56 24 SW6 29.94F  
SPRINGFIELD N/A 95 52 23 S12G22 30.01F  

 
 
 
CLICK HERE TO GO TO PREVIOUS BULLETINS.

The Nexlab CO Page Main Text Page